This is the latest recevied weather packets stored in our database for station/object NK7E. If no packets are shown the sender has not sent any weather packets the latest 10 day(s).
| Time | Temp. | Humidity | Pressure | Rain* | Wind** | Luminosity | Snow |
|---|---|---|---|---|---|---|---|
| 1778214916 | 24.44° C | 22% | 1014.1 hPa | 0 mm | - | 0 W/m² | - |
| 1778214316 | 24.44° C | 21% | 1014 hPa | 0 mm | - | 0 W/m² | - |
| 1778213716 | 24.44° C | 21% | 1013.8 hPa | 0 mm | - | 0 W/m² | - |
| 1778213116 | 24.44° C | 21% | 1013.7 hPa | 0 mm | - | 0 W/m² | - |
| 1778212521 | 24.44° C | 21% | 1013.5 hPa | 0 mm | - | 0 W/m² | - |
| 1778211916 | 24.44° C | 21% | 1013.3 hPa | 0 mm | - | 0 W/m² | - |
| 1778211316 | 25° C | 21% | 1013.1 hPa | 0 mm | - | 0 W/m² | - |
| 1778210717 | 25° C | 21% | 1012.9 hPa | 0 mm | - | 0 W/m² | - |
| 1778210116 | 25° C | 21% | 1012.7 hPa | 0 mm | - | 0 W/m² | - |
| 1778209516 | 25.56° C | 21% | 1012.6 hPa | 0 mm | - | 0 W/m² | - |
| 1778208917 | 25.56° C | 20% | 1012.3 hPa | 0 mm | - | 0 W/m² | - |
| 1778208316 | 26.11° C | 20% | 1012.1 hPa | 0 mm | - | 0 W/m² | - |
| 1778207716 | 26.67° C | 19% | 1012 hPa | 0 mm | - | 0 W/m² | - |
| 1778207116 | 27.22° C | 15% | 1011.6 hPa | 0 mm | - | 0 W/m² | - |
| 1778206516 | 27.78° C | 14% | 1011.4 hPa | 0 mm | - | 3 W/m² | - |
| 1778205916 | 27.78° C | 14% | 1011.2 hPa | 0 mm | - | 13 W/m² | - |
| 1778205317 | 28.33° C | 14% | 1011 hPa | 0 mm | - | 34 W/m² | - |
| 1778204716 | 28.33° C | 14% | 1010.9 hPa | 0 mm | - | 63 W/m² | - |
| 1778204116 | 28.89° C | 14% | 1010.8 hPa | 0 mm | - | 99 W/m² | - |
| 1778203516 | 28.89° C | 14% | 1010.7 hPa | 0 mm | - | 134 W/m² | - |
| 1778202916 | 28.89° C | 14% | 1010.6 hPa | 0 mm | - | 147 W/m² | - |
| 1778202316 | 29.44° C | 14% | 1010.5 hPa | 0 mm | - | 167 W/m² | - |
| 1778201716 | 29.44° C | 14% | 1010.5 hPa | 0 mm | - | 188 W/m² | - |
| 1778201116 | 29.44° C | 14% | 1010.4 hPa | 0 mm | - | 193 W/m² | - |
| 1778200516 | 29.44° C | 14% | 1010.3 hPa | 0 mm | - | 195 W/m² | - |
* Rain latest hour (hover to see other rain measurements)
** Current wind speed in m/s (hover to see current wind gust speed)